Hourly Data Report for January 09, 2018

All times are specified in Local Standard Time (LST). Add 1 hour to adjust for Daylight Saving Time where and when it is observed.

BARRIE-ORO
ONTARIO

44°29'00.000" N
79°33'00.000" W
289.00 m
6117700
71314
XBI

Download Data

Hourly Data (January 2018)
Hourly Data Report for January 9, 2018
Temp Definition
°C
Dew Point Temp Definition
°C
Rel Hum Definition
%
Wind Dir Definition
10's deg

Wind Spd Definition
km/h
Visibility Definition
km
Stn Press Definition
kPa
Hmdx Definition


Wind Chill Definition


Weather Definition


TIME
00:00 -1.0 -3.8 81 26 15   97.69   -6 LegendNANA
01:00 -1.6 -2.6 93 28 22   97.76   -8 LegendNANA
02:00 -2.1 -3.0 94 29 16   97.88   -7 LegendNANA
03:00 -1.7 -4.2 83 30 18   98.00   -7 LegendNANA
04:00 -2.7 -6.2 77 29 22   98.07   -9 LegendNANA
05:00 -2.3 -5.6 79 31 15   98.17   -7 LegendNANA
06:00 -2.4 -5.5 80 30 13   98.28   -7 LegendNANA
07:00 -2.6 -5.6 80 30 11   98.34   -7 LegendNANA
08:00 -2.5 -5.6 79 31 12   98.42   -7 LegendNANA
09:00 -2.5 -5.6 79 31 11   98.53   -7 LegendNANA
10:00 -2.7 -5.2 83 30 14   98.64   -8 LegendNANA
11:00 -2.8 -5.1 84 31 11   98.72   -7 LegendNANA
12:00 -3.0 -6.0 80 29 17   98.76   -9 LegendNANA
13:00 -2.8 -6.8 74 30 16   98.76   -8 LegendNANA
14:00 -2.7 -7.5 70 30 17   98.82   -8 LegendNANA
15:00 -2.9 -6.9 74 29 15   98.89   -8 LegendNANA
16:00 -3.0 -7.4 72 29 14   98.98   -8 LegendNANA
17:00 -3.3 -7.3 74 31 8   99.06   -7 LegendNANA
18:00 -3.5 -7.4 75 31 7   99.12   -6 LegendNANA
19:00 -3.8 -7.6 75 31 5   99.17   -6 LegendNANA
20:00 -6.1 -7.9 87 0 1   99.18   -7 LegendNANA
21:00 -6.0 -7.8 87   0   99.22     LegendNANA
22:00 -5.6 -7.7 85 17 1   99.21   -6 LegendNANA
23:00 -5.5 -7.5 86 17 3   99.20   -7 LegendNANA

Notes on Data Quality.

Legend

  • E = Estimated
  • M = Missing
  • NA = Not Available
  • ‡ = Partner data that is not subject to review by the National Climate Archives
Date modified: